Location: Albany
(35.0000°S, 118.0000°E)
Time: 21:37:54
(UTC-05:00)

SJ-6B - Visible Passes

Search period start: 23 November 2014 00:00
Search period end: 03 December 2014 00:00
Orbit: 518 x 597 km, 97.8° (Epoch: 23 November)

Date Brightness Start Highest point End Pass type
(mag) Time Alt. Az. Time Alt. Az. Time Alt. Az.
28 Nov 6.8 06:48:47 10° WSW 06:49:20 10° WSW 06:49:53 10° WSW visible
29 Nov 6.7 06:46:13 10° SW 06:47:15 11° WSW 06:48:17 10° W visible
30 Nov 6.5 06:43:48 10° SW 06:45:09 12° WSW 06:46:30 10° W visible
01 Dec 6.4 06:41:26 10° SW 06:43:03 12° WSW 06:44:38 10° W visible
02 Dec 6.3 06:39:06 10° SW 06:40:55 13° WSW 06:42:43 10° W visible
